Skip Page Navigation
NASA JPL Caltech
NASA Logo - Jet Propulsion Laboratory + View the NASA Portal
+ Center for Near-Earth Object Studies
JPL Home Earth Solar System Stars & Galaxies Technology
JPL Solar System Dynamics
BODIES ORBITS EPHEMERIDES TOOLS PHYSICAL DATA DISCOVERY FAQ SITE MAP
JPL Small-Body Database Browser
Search: [ help ]  
85966 (1999 FD62)
Classification: Main-belt Asteroid          SPK-ID: 2085966
Ephemeris | Orbit Diagram | Orbital Elements | Mission Design | Physical Parameters | Discovery Circumstances ]

[ show orbit diagram ]
Orbital Elements at Epoch 2459000.5 (2020-May-31.0) TDB
Reference: JPL 24 (heliocentric ecliptic J2000)
 Element Value Uncertainty (1-sigma)   Units 
e .1175780301677641 2.9946e-08  
a 2.332680272863558 8.6942e-09 au
q 2.058408321369058 6.9168e-08 au
i 10.97713726874251 3.8661e-06 deg
node 160.9023538403108 1.7238e-05 deg
peri 284.9480265835342 2.7424e-05 deg
M 65.85930870266647 1.8398e-05 deg
tp 2458762.434798211272
(2019-Oct-05.93479821)
6.6798e-05 TDB
period 1301.311452126921
3.56
7.2752e-06
1.992e-08
d
yr
n .2766439958793876 1.5466e-09 deg/d
Q 2.606952224358058 9.7164e-09 au
  Orbit Determination Parameters
   # obs. used (total)      1251  
   data-arc span      9835 days (26.93 yr)  
   first obs. used      1993-05-23  
   last obs. used      2020-04-26  
   planetary ephem.      DE431  
   SB-pert. ephem.      SB431-N16  
   condition code      0  
   norm. resid. RMS      .50923  
   source      ORB  
   producer      Otto Matic  
   solution date      2020-May-20 15:41:39  

Additional Information
 Earth MOID = 1.10583 au 
 Jupiter MOID = 2.5889 au 
 T_jup = 3.536 
[ show covariance matrix ]

Ephemeris | Orbit Diagram | Orbital Elements | Mission Design | Physical Parameters | Discovery Circumstances ]

Physical Parameter Table
Parameter Symbol Value Units Sigma Reference Notes
absolute magnitude H 15.2   n/a MPO359343  
diameter diameter 3.703 km 0.111 urn:nasa:pds:neowise_diameters_albedos::2.0[mainbelt] (http://adsabs.harvard.edu/abs/2011ApJ...741...68M)  
geometric albedo albedo 0.117   0.026 urn:nasa:pds:neowise_diameters_albedos::2.0[mainbelt] (http://adsabs.harvard.edu/abs/2011ApJ...741...68M)  

85966 (1999 FD62)          Discovered 1999-Mar-22 by LONEOS at Anderson Mesa
Reference: 20040830/Numbers.arcLast Updated: 2004-09-06

Alternate Designations
 1999 FD62 = 2003 KD11 
Ephemeris | Orbit Diagram | Orbital Elements | Mission Design | Physical Parameters | Discovery Circumstances ]
ABOUT SSD CREDITS/AWARDS PRIVACY/COPYRIGHT GLOSSARY LINKS
FirstGov 2020-Sep-19 06:54 UT
(server date/time)  
NASA Home Page
Site Manager:   Ryan S. Park
Webmaster  Alan B. Chamberlin